This is the latest recevied weather packets stored in our database for station/object KC4GS-13. If no packets are shown the sender has not sent any weather packets the latest 10 day(s).
| Time | Temp. | Humidity | Pressure | Rain* | Wind** | Luminosity | Snow |
|---|---|---|---|---|---|---|---|
| 1777599199 | 20° C | 79% | 1011.9 hPa | 0 mm | - | 0 W/m² | - |
| 1777598895 | 20° C | 79% | 1012 hPa | 0 mm | - | 0 W/m² | - |
| 1777598593 | 20° C | 78% | 1012 hPa | 0 mm | - | 0 W/m² | - |
| 1777598289 | 20.56° C | 79% | 1011.8 hPa | 0 mm | - | 0 W/m² | - |
| 1777597987 | 20.56° C | 79% | 1011.8 hPa | 0 mm | - | 0 W/m² | - |
| 1777597686 | 20.56° C | 79% | 1011.6 hPa | 0 mm | - | 0 W/m² | - |
| 1777597382 | 20.56° C | 79% | 1011.9 hPa | 0 mm | - | 0 W/m² | - |
| 1777597077 | 20.56° C | 79% | 1011.7 hPa | 0 mm | - | 0 W/m² | - |
| 1777596774 | 20.56° C | 79% | 1011.4 hPa | 0 mm | - | 0 W/m² | - |
| 1777596470 | 20.56° C | 79% | 1011.3 hPa | 0 mm | - | 0 W/m² | - |
| 1777596167 | 21.11° C | 78% | 1011 hPa | 0 mm | - | 0 W/m² | - |
| 1777595864 | 21.11° C | 77% | 1011.3 hPa | 0 mm | - | 0 W/m² | - |
| 1777595559 | 21.11° C | 76% | 1010.8 hPa | 0 mm | - | 0 W/m² | - |
| 1777595255 | 21.67° C | 75% | 1010.8 hPa | 0 mm | - | 0 W/m² | - |
| 1777594951 | 21.67° C | 74% | 1011 hPa | 0 mm | - | 0 W/m² | - |
| 1777594647 | 22.22° C | 74% | 1010.7 hPa | 0 mm | - | 0 W/m² | - |
| 1777594344 | 22.22° C | 73% | 1010.8 hPa | 0 mm | - | 0 W/m² | - |
| 1777594041 | 22.22° C | 73% | 1010.7 hPa | 0 mm | - | 1 W/m² | - |
| 1777593736 | 22.78° C | 71% | 1010.4 hPa | 0 mm | - | 4 W/m² | - |
| 1777593433 | 22.78° C | 72% | 1010.5 hPa | 0 mm | - | 7 W/m² | - |
| 1777593131 | 22.78° C | 71% | 1010.7 hPa | 0 mm | - | 11 W/m² | - |
| 1777592830 | 23.33° C | 70% | 1010.6 hPa | 0 mm | - | 16 W/m² | - |
| 1777592527 | 23.33° C | 70% | 1010.7 hPa | 0 mm | - | 23 W/m² | - |
| 1777592223 | 23.33° C | 69% | 1010.3 hPa | 0 mm | - | 29 W/m² | - |
| 1777591919 | 23.33° C | 69% | 1010.4 hPa | 0 mm | - | 30 W/m² | - |
* Rain latest hour (hover to see other rain measurements)
** Current wind speed in m/s (hover to see current wind gust speed)